Location: Port Huron, MI 48060, USA
(42.9794°N, 82.4282°W)
Time: 14:17:06
(UTC-04:00)

ISS - Visible Passes

Search period start: 21 September 2018 00:00
Search period end: 01 October 2018 00:00
Orbit: 403 x 408 km, 51.6° (Epoch: 21 September)

Date Brightness Start Highest point End Pass type
(mag) Time Alt. Az. Time Alt. Az. Time Alt. Az.
21 Sep -2.2 21:27:04 10° SW 21:28:48 28° SW 21:28:48 28° SW visible
22 Sep -3.3 20:35:28 10° SSW 20:38:34 40° SE 20:39:44 28° E visible
22 Sep -0.5 22:12:06 10° W 22:12:27 12° W 22:12:27 12° W visible
23 Sep -3.1 21:19:57 10° WSW 21:23:10 50° NNW 21:23:10 50° NNW visible
24 Sep -3.8 20:27:58 10° WSW 20:31:15 85° NW 20:33:41 17° NE visible
24 Sep -0.7 22:05:26 10° WNW 22:06:24 15° WNW 22:06:24 15° WNW visible
25 Sep -2.1 21:13:07 10° W 21:16:03 29° NNW 21:16:46 26° N visible
26 Sep -2.7 20:20:52 10° W 20:24:02 41° NNW 20:27:01 11° NE visible
26 Sep -0.7 21:58:44 10° NW 21:59:42 15° NW 21:59:42 15° NW visible
27 Sep -1.7 21:06:24 10° WNW 21:09:00 21° NNW 21:09:52 19° N visible
28 Sep -1.9 20:14:02 10° WNW 20:16:53 26° NNW 20:19:44 10° NE visible
28 Sep -0.7 21:51:48 10° NW 21:52:38 14° NNW 21:52:38 14° NNW visible
29 Sep -1.6 20:59:36 10° NW 21:01:58 18° N 21:02:41 17° NNE visible
30 Sep -1.6 20:07:15 10° WNW 20:09:46 20° N 20:12:18 10° NE visible
30 Sep -0.8 21:44:33 10° NW 21:45:21 14° NNW 21:45:21 14° NNW visible
